TimeCDT,TemperatureF,Dew PointF,Humidity,Sea Level PressureIn,VisibilityMPH,Wind Direction,Wind SpeedMPH,Gust SpeedMPH,PrecipitationIn,Events,Conditions,WindDirDegrees,DateUTC
12:52 AM,53.1,46.9,80,30.12,10.0,Calm,Calm,-,N/A,,Clear,0,2013-10-09 05:52:00
1:52 AM,53.1,48.0,83,30.12,10.0,Calm,Calm,-,N/A,,Clear,0,2013-10-09 06:52:00
2:52 AM,51.1,46.9,86,30.11,10.0,Calm,Calm,-,N/A,,Clear,0,2013-10-09 07:52:00
3:52 AM,52.0,48.0,86,30.11,10.0,Calm,Calm,-,N/A,,Mostly Cloudy,0,2013-10-09 08:52:00
4:52 AM,50.0,48.0,93,30.12,10.0,Calm,Calm,-,N/A,,Clear,0,2013-10-09 09:52:00
5:52 AM,50.0,48.0,93,30.13,10.0,Calm,Calm,-,N/A,,Clear,0,2013-10-09 10:52:00
6:52 AM,50.0,48.0,93,30.14,7.0,Calm,Calm,-,N/A,,Clear,0,2013-10-09 11:52:00
7:52 AM,53.1,50.0,89,30.17,6.0,Calm,Calm,-,N/A,,Clear,0,2013-10-09 12:52:00
8:52 AM,57.9,52.0,81,30.17,7.0,Calm,Calm,-,N/A,,Partly Cloudy,0,2013-10-09 13:52:00
9:52 AM,64.9,55.0,70,30.18,10.0,South,4.6,-,N/A,,Clear,170,2013-10-09 14:52:00
10:52 AM,70.0,57.9,65,30.18,10.0,South,4.6,-,N/A,,Clear,180,2013-10-09 15:52:00
11:52 AM,73.0,59.0,61,30.17,10.0,Calm,Calm,-,N/A,,Clear,0,2013-10-09 16:52:00
12:52 PM,75.9,60.1,58,30.15,10.0,WNW,4.6,-,N/A,,Clear,300,2013-10-09 17:52:00
1:52 PM,78.1,60.1,54,30.13,10.0,NNW,4.6,-,N/A,,Scattered Clouds,340,2013-10-09 18:52:00
2:52 PM,75.9,59.0,56,30.11,10.0,ESE,3.5,-,N/A,,Scattered Clouds,120,2013-10-09 19:52:00
3:52 PM,78.1,57.9,50,30.10,9.0,Calm,Calm,-,N/A,,Clear,0,2013-10-09 20:52:00
4:52 PM,77.0,59.0,54,30.10,10.0,SSE,3.5,-,N/A,,Clear,160,2013-10-09 21:52:00
5:52 PM,75.0,59.0,57,30.10,10.0,Calm,Calm,-,N/A,,Clear,0,2013-10-09 22:52:00
6:52 PM,70.0,60.1,71,30.10,10.0,Calm,Calm,-,N/A,,Partly Cloudy,0,2013-10-09 23:52:00
7:52 PM,66.0,60.1,81,30.12,10.0,Calm,Calm,-,N/A,,Clear,0,2013-10-10 00:52:00
8:52 PM,63.0,60.1,90,30.12,10.0,Calm,Calm,-,N/A,,Clear,0,2013-10-10 01:52:00
9:52 PM,64.0,60.1,87,30.12,10.0,Calm,Calm,-,N/A,,Mostly Cloudy,0,2013-10-10 02:52:00
10:52 PM,64.0,59.0,84,30.12,10.0,East,3.5,-,N/A,,Partly Cloudy,90,2013-10-10 03:52:00
11:52 PM,61.0,59.0,93,30.12,8.0,Calm,Calm,-,N/A,,Scattered Clouds,0,2013-10-10 04:52:00